Skip Page Navigation
NASA JPL Caltech
NASA Logo - Jet Propulsion Laboratory + View the NASA Portal
+ Near-Earth Object (NEO) Program
Search JPL
JPL Home Earth Solar System Stars & Galaxies Technology
JPL Solar System Dynamics
BODIES ORBITS EPHEMERIDES TOOLS PHYSICAL DATA DISCOVERY FAQ SITE MAP
JPL Small-Body Database Browser
Search: [ help ]  
30852 Debye (1991 TR6)
Classification: Main-belt Asteroid          SPK-ID: 2030852
Ephemeris | Orbit Diagram | Orbital Elements | Physical Parameters | Discovery Circumstances ]

[ show orbit diagram ]
Orbital Elements at Epoch 2456400.5 (2013-Apr-18.0) TDB
Reference: MPO229256 (heliocentric ecliptic J2000)
 Element Value Uncertainty (1-sigma)   Units 
e 0.1563904 n/a  
a 2.1692754 n/a AU
q 1.8300216 n/a AU
i 2.32659 n/a deg
node 299.35506 n/a deg
peri 310.97936 n/a deg
M 6.78256 n/a deg
tp 2456378.5132205
(2013-Mar-27.01322050)
n/a JED
period 1166.9989804
3.20
n/a
n/a
d
yr
n 0.30848356 n/a deg/d
Q 2.5085292 n/a AU
  Orbit Determination Parameters
   # obs. used (total)      842  
   first obs. used      1991-??-??  
   last obs. used      2012-04-30  
   # oppositions      12  
   planetary ephem.      DE403  
   condition code      0  
   fit RMS      0.51  
   data source      MPC:mpn  
   producer      MPCLINUX  

Additional Information
 T_jup = 3.673 

Ephemeris | Orbit Diagram | Orbital Elements | Physical Parameters | Discovery Circumstances ]

Physical Parameter Table
Parameter Symbol Value Units Sigma Reference Notes
absolute magnitude H 15.5 mag n/a PDS3 (MPO 18560)  

30852 Debye           Discovered 1991 Oct. 2 by F. Borngen and L. D. Schmadel at Tautenburg.
Dutch-American physical chemist Peter Debye (1884-1966), recipient of the 1936 Nobel prize in chemistry, carried out theoretical and experimental research in quantum physics, investigating molecular and crystalline structures, dipole moments, diffraction effects by x-rays and the scattering of light in gases.
NOTE: some special characters may not display properly (any characters within {} are an attempt to place the proper accent above a character)
Reference: 20020427/MPCPages.arcLast Updated: 2003-10-02

Alternate Designations
 1991 TR6 = 1994 PJ8 
Ephemeris | Orbit Diagram | Orbital Elements | Physical Parameters | Discovery Circumstances ]
ABOUT SSD CREDITS/AWARDS PRIVACY/COPYRIGHT GLOSSARY LINKS
FirstGov 2013-May-22 22:48 UT
(server date/time)  
NASA Home Page
Site Manager:   Donald K. Yeomans
Webmaster  Alan B. Chamberlin